Location: Deurze
(52.9838°N, 6.6090°E)
Time: 19:37:33
(UTC+00:00)

In-Cosmos 22 - Pass Details

Date: 11 March 2026
Orbit: 783 x 874 km, 81.2° (Epoch: 20 April)

Event Time Altitude Azimuth Distance (km) Brightness Sun altitude
Rises 19:20:33 0° 347° (NNW) 3,302 7.7 -17.2°
Reaches altitude 10° 19:22:58 10° 350° (N) 2,362 6.9 -17.5°
Maximum altitude 19:28:16 71° 74° (ENE) 832 4.0 -18.3°
Enters shadow 19:31:35 23° 155° (SSE) 1,614 5.3 -18.7°
